CDT,Max TemperatureF,Mean TemperatureF,Min TemperatureF,Max Dew PointF,MeanDew PointF,Min DewpointF,Max Humidity, Mean Humidity, Min Humidity, Max Sea Level PressureIn, Mean Sea Level PressureIn, Min Sea Level PressureIn, Max VisibilityMiles, Mean VisibilityMiles, Min VisibilityMiles, Max Wind SpeedMPH, Mean Wind SpeedMPH, Max Gust SpeedMPH,PrecipitationIn, CloudCover, Events, WindDirDegrees
2013-10-1,77,61,45,51,41,31,82,51,20,30.01,29.88,29.61,10,10,10,22,7,28,0.00,1,,306
2013-10-2,80,62,43,65,51,32,93,63,32,30.01,29.88,29.78,10,10,8,25,9,36,0.10,5,Rain-Thunderstorm,149
2013-10-3,59,57,54,55,54,52,100,93,86,29.91,29.84,29.81,10,10,5,20,10,25,0.12,8,Rain-Thunderstorm,41
2013-10-4,63,55,47,61,54,42,100,90,80,29.90,29.80,29.67,10,9,2,24,16,31,0.01,8,Rain-Thunderstorm,81
2013-10-5,47,42,37,43,37,32,86,76,65,29.80,29.75,29.70,10,10,10,22,15,29,T,6,Thunderstorm,189
2013-10-6,59,51,43,45,41,33,93,67,40,30.01,29.85,29.77,10,10,3,28,13,33,0.01,6,Rain,320
2013-10-7,73,56,39,45,42,37,82,58,33,30.03,29.97,29.89,10,10,10,13,5,17,0.00,1,,215
2013-10-8,78,65,52,45,42,40,64,44,24,29.88,29.81,29.73,10,10,10,30,17,39,0.00,4,,183
2013-10-9,78,65,52,49,47,44,80,53,31,29.96,29.92,29.86,10,10,10,20,12,26,0.00,2,,168
2013-10-10,79,68,56,53,50,48,77,56,34,29.93,29.83,29.70,10,10,10,30,15,37,0.00,5,,165
2013-10-11,75,62,49,56,50,40,78,57,35,29.79,29.62,29.44,10,10,10,35,17,46,0.01,4,Rain,190
2013-10-12,62,48,34,39,32,25,76,51,25,30.29,30.04,29.81,10,10,10,24,10,33,0.00,1,,276
2013-10-13,65,47,28,32,30,25,92,60,27,30.45,30.36,30.30,10,10,10,15,6,20,0.00,1,,126
2013-10-14,52,48,44,50,43,32,93,71,48,30.31,29.98,29.69,10,6,2,32,15,41,2.27,8,Rain-Thunderstorm,125
2013-10-15,53,48,42,52,44,39,100,92,83,30.03,29.84,29.65,10,8,2,22,14,30,0.08,8,Rain,309
2013-10-16,55,44,32,40,35,30,100,73,45,30.08,30.02,29.94,10,9,0,15,6,20,0.00,3,,306
2013-10-17,54,43,32,43,36,31,96,81,66,30.05,29.94,29.86,10,10,7,23,9,30,T,6,Rain,308
2013-10-18,52,41,29,35,31,26,89,64,38,30.12,30.04,29.94,10,10,10,18,6,24,0.00,5,,281
2013-10-19,53,44,35,40,35,29,89,72,54,29.91,29.84,29.79,10,10,5,22,8,31,0.06,6,Rain,272
2013-10-20,54,44,34,41,35,29,85,71,57,30.04,29.82,29.67,10,10,9,26,11,35,0.01,8,Rain,306
2013-10-21,50,42,33,33,29,27,89,66,42,30.08,30.02,29.96,10,10,10,15,6,21,0.01,6,Rain,291
2013-10-22,41,35,29,34,31,28,96,80,64,30.14,30.02,29.93,10,7,1,13,7,17,0.05,8,Rain-Snow,25
2013-10-23,40,34,28,36,31,26,100,82,64,30.24,30.12,30.04,10,9,2,15,6,20,0.05,7,Rain-Snow,344
2013-10-24,48,37,25,29,27,24,92,69,45,30.39,30.35,30.25,10,10,10,17,7,23,0.00,2,,301
2013-10-25,62,43,24,39,32,22,92,66,39,30.39,30.16,29.96,10,10,10,20,8,29,0.00,1,,226
2013-10-26,48,38,27,37,28,25,92,67,42,30.26,30.16,29.99,10,10,10,18,9,23,0.00,3,,317
2013-10-27,63,47,30,36,30,25,79,59,31,30.12,29.95,29.83,10,10,10,17,9,24,0.00,0,,228
2013-10-28,43,37,31,30,28,24,89,69,48,30.39,30.30,30.13,10,10,10,22,15,28,0.04,5,Rain,58
2013-10-29,42,38,34,41,35,30,100,95,89,30.32,30.16,30.03,10,6,1,18,10,23,0.19,8,Rain,67
2013-10-30,43,40,37,42,39,35,100,93,85,30.04,29.88,29.75,10,4,0,12,5,15,T,8,Fog-Rain,323
2013-10-31,46,41,35,37,35,33,92,82,71,29.75,29.61,29.48,10,10,9,14,7,18,0.00,7,,285